STARLINK-36289

Last updated on Sun Mar 15 2026 00:02:07 GMT+0000 (Coordinated Universal Time)

1 67827U 26033G 26073.58335648 -.01942382 00000+0 -21604-1 0 9998 2 67827 42.9990 241.7766 0001603 274.8675 147.3471 15.65190983 5455
UTC large
Height (km)
Speed (km/s)
/
Latitude / Longitude
Inclination (degrees)
Orbital Period (minutes)
Azimuth
Elevation
Range (km)
Doppler Factor

Next 0 passes for location: London (51.5072 / 0.1276)

Sorry there are no passes over London.